Flag for Poland Weather past 2 weeks in Grudziądz, Poland

Now
50 °F

Passing clouds.


Feels Like: 50 °F
Forecast: 61 / 91 °F
Wind: 2 mph from East

Location: Torun

Current Time: Aug 30, 2015 at 3:52:52 AM

Latest Report: Aug 30, 2015 at 3:00 AM


Visibility: 7 mi

Pressure: 30.24 "Hg

Humidity: 91%

Dew point: 48 °F

Location of GrudziądzLocation

Historic Weather in Grudziądz — Graph

°F

Grudziądz temperature yesterday

Maximum temperature yesterday: 76 °F (at 4:00 PM)
Minimum temperature yesterday: 52 °F (at 6:00 AM)
Average temperature yesterday: 62 °F

Past Weeks' High & Low Weather Summary

 TemperatureHumidityPressure
High89 °F (Aug 15, 4:00 PM)98% (Aug 29, 3:00 AM)30.37 "Hg (Aug 29, 3:00 AM)
Low46 °F (Aug 21, 5:00 AM)22% (Aug 18, 5:00 PM)29.75 "Hg (Aug 15, 6:00 PM)
Average69 °F52%30.06 "Hg
* Reported Aug 15 2:00 AM — Aug 30 2:00 AM, Grudziądz, Weather by CustomWeather, © 2015

Note: Actual official high and low records may vary slightly from our data, if they occured in-between our weather recording intervals... More about our weather records

Advertising

Grudziądz weather history for previous 24 hours

 ConditionsComfort  
Time TempWeatherWind HumidityBarometerVisibility
2:00 AM
Sun, Aug 30
51 °FPassing clouds.2 mph91%30.24 "Hg7 mi
1:00 AM51 °FPassing clouds.1 mph89%30.26 "Hg12 mi
12:00 AM52 °FPassing clouds.No wind87%30.25 "Hg15 mi
10:00 PM
Sat, Aug 29
56 °FPassing clouds.1 mph77%30.26 "Hg22 mi
9:00 PM59 °FPassing clouds.No wind72%30.25 "Hg25 mi
8:00 PM64 °FPassing clouds.No wind61%30.24 "Hg31 mi
7:00 PM72 °FPassing clouds.1 mph41%30.24 "Hg31 mi
6:00 PM74 °FPassing clouds.2 mph36%30.24 "Hg28 mi
5:00 PM73 °FScattered clouds.1 mph37%30.25 "Hg31 mi
4:00 PM76 °FScattered clouds.3 mph33%30.25 "Hg22 mi
2:00 PM74 °FScattered clouds.2 mph36%30.27 "Hg19 mi
11:00 AM67 °FScattered clouds.2 mph63%30.28 "Hg19 mi
10:00 AM65 °FPassing clouds.2 mph69%30.27 "Hg19 mi
9:00 AM61 °FSunny.1 mph81%30.26 "Hg19 mi
7:00 AM53 °FFog.1 mph98%30.24 "Hg6 mi
6:00 AM52 °FFog.1 mph98%30.22 "Hg5 mi
5:00 AM52 °FFog.1 mph98%30.21 "Hg5 mi
3:00 AM53 °FFog.1 mph98%30.18 "Hg4 mi
Weather by CustomWeather, © 2015

See weather overviewHow to use our weather pages